| time (UTC) | temp C | wind direction | speed KPH | gust KPH | rain 1hr cm | rain 24hr cm | rain mn cm | humidity % | barometer mb |
| 20260504201553 | 12 | 247 | 1.6 | 11.3 | 0.15 | 2.03 | 1.98 | 96 | 1010.4 |
| 20260504200050 | 12 | 159 | 6.4 | 12.9 | 0.13 | 2.01 | 1.96 | 95 | 1010.2 |
| 20260504194549 | 12 | 214 | 11.3 | 19.3 | 0.10 | 2.11 | 1.93 | 95 | 1010.1 |
| 20260504193057 | 13 | 221 | 1.6 | 12.9 | 0.05 | 2.06 | 1.88 | 93 | 1009.0 |
| 20260504191553 | 13 | 173 | 3.2 | 12.9 | 0.00 | 2.03 | 1.83 | 92 | 1009.0 |
| 20260504190126 | 13 | 297 | 1.6 | 9.7 | 0.00 | 2.03 | 1.83 | 91 | 1008.8 |
| 20260504184553 | 14 | 314 | 0.0 | 9.7 | 0.00 | 2.03 | 1.83 | 92 | 1008.6 |
| 20260504183102 | 14 | 278 | 0.0 | 3.2 | 0.03 | 2.03 | 1.83 | 93 | 1008.6 |
| 20260504181557 | 14 | 309 | 0.0 | 3.2 | 0.05 | 2.03 | 1.83 | 94 | 1008.7 |
| 20260504180117 | 14 | 131 | 0.0 | 1.6 | 0.05 | 2.03 | 1.83 | 94 | 1008.7 |
| 20260504174554 | 14 | 354 | 0.0 | 1.6 | 0.05 | 2.26 | 1.83 | 94 | 1008.8 |
| 20260504173055 | 14 | 3 | 0.0 | 1.6 | 0.05 | 2.24 | 1.83 | 94 | 1008.9 |
| 20260504171551 | 14 | 233 | 0.0 | 8.0 | 0.03 | 2.21 | 1.80 | 92 | 1009.1 |
| 20260504140107 | 18 | 298 | 0.0 | 6.4 | 0.00 | 2.21 | 1.78 | 78 | 1009.8 |
| 20260504130112 | 16 | 286 | 0.0 | 1.6 | 0.00 | 2.21 | 1.78 | 85 | 1010.3 |
| 20260504100104 | 12 | 60 | 0.0 | 0.0 | 0.00 | 2.21 | 1.78 | 99 | 1011.8 |
| 20260504090105 | 11 | 56 | 0.0 | 1.6 | 0.03 | 2.21 | 1.78 | 100 | 1011.9 |
| 20260504081548 | 11 | 56 | 0.0 | 0.0 | 0.25 | 2.18 | 1.75 | 100 | 1012.0 |
| 20260504080113 | 11 | 55 | 0.0 | 0.0 | 0.33 | 2.18 | 1.75 | 100 | 1012.1 |
| 20260504070105 | 11 | 224 | 0.0 | 1.6 | 0.18 | 1.85 | 1.42 | 100 | 1011.8 |
| 20260504050104 | 11 | 224 | 0.0 | 0.0 | 0.15 | 1.55 | 0.99 | 99 | 1011.3 |
| 20260504044552 | 11 | 224 | 0.0 | 0.0 | 0.13 | 1.63 | 0.94 | 99 | 1011.3 |
| 20260504043053 | 11 | 224 | 0.0 | 1.6 | 0.08 | 1.57 | 0.89 | 99 | 1011.3 |
| 20260504041605 | 11 | 225 | 0.0 | 1.6 | 0.05 | 1.52 | 0.84 | 99 | 1011.4 |
| 20260504040105 | 11 | 225 | 0.0 | 1.6 | 0.08 | 1.52 | 0.84 | 99 | 1011.5 |
| 20260504034553 | 11 | 226 | 0.0 | 0.0 | 0.13 | 1.50 | 0.81 | 99 | 1011.5 |
| 20260504033049 | 11 | 63 | 0.0 | 0.0 | 0.18 | 1.50 | 0.81 | 99 | 1011.7 |
| 20260504031549 | 11 | 63 | 0.0 | 0.0 | 0.23 | 1.45 | 0.79 | 99 | 1011.8 |
| 20260504030106 | 11 | 63 | 0.0 | 0.0 | 0.23 | 1.42 | 0.76 | 99 | 1011.8 |
| 20260504024609 | 12 | 63 | 0.0 | 0.0 | 0.18 | 1.37 | 0.71 | 99 | 1011.9 |
| 20260504023103 | 12 | 63 | 0.0 | 0.0 | 0.15 | 1.32 | 0.64 | 99 | 1011.9 |
| 20260504021556 | 12 | 63 | 0.0 | 0.0 | 0.15 | 1.27 | 0.58 | 99 | 1011.9 |
| 20260504020106 | 12 | 63 | 0.0 | 1.6 | 0.18 | 1.22 | 0.53 | 99 | 1012.0 |
| 20260504014607 | 12 | 63 | 0.0 | 0.0 | 0.20 | 1.17 | 0.51 | 99 | 1012.0 |
| 20260504013101 | 12 | 63 | 0.0 | 0.0 | 0.23 | 1.17 | 0.48 | 99 | 1012.0 |
| 20260504011559 | 12 | 63 | 0.0 | 0.0 | 0.25 | 1.09 | 0.43 | 99 | 1012.1 |
| 20260504004605 | 12 | 63 | 0.0 | 0.0 | 0.20 | 0.99 | 0.30 | 99 | 1012.4 |
| 20260504003101 | 12 | 63 | 0.0 | 0.0 | 0.15 | 0.91 | 0.23 | 98 | 1012.4 |
| 20260504001550 | 12 | 63 | 0.0 | 0.0 | 0.10 | 0.84 | 0.15 | 99 | 1012.4 |
| 20260504000139 | 12 | 63 | 0.0 | 0.0 | 0.05 | 0.79 | 0.13 | 98 | 1012.6 |
| 20260503234558 | 12 | 63 | 0.0 | 0.0 | 0.05 | 0.79 | 0.10 | 98 | 1012.8 |
| 20260503233107 | 12 | 63 | 0.0 | 0.0 | 0.03 | 0.76 | 0.08 | 98 | 1012.9 |
| 20260503231557 | 12 | 63 | 0.0 | 0.0 | 0.03 | 0.71 | 0.05 | 98 | 1013.0 |
| 20260503230053 | 12 | 63 | 0.0 | 0.0 | 0.05 | 0.71 | 0.05 | 98 | 1013.0 |
| 20260503224545 | 12 | 63 | 0.0 | 0.0 | 0.08 | 0.71 | 0.05 | 98 | 1013.0 |
| 20260503223105 | 12 | 45 | 0.0 | 3.2 | 0.08 | 0.71 | 0.05 | 98 | 1013.2 |
| 20260503221606 | 12 | 267 | 0.0 | 0.0 | 0.05 | 0.71 | 0.05 | 98 | 1013.2 |
| 20260503220003 | 12 | 266 | 0.0 | 1.6 | 0.03 | 0.69 | 0.00 | 98 | 1013.3 |
| 20260503214547 | 12 | 269 | 0.0 | 0.0 | 0.00 | 0.66 | 0.66 | 98 | 1013.3 |
| 20260503213110 | 12 | 269 | 0.0 | 1.6 | 0.00 | 0.66 | 0.66 | 98 | 1013.3 |
| 20260503211621 | 12 | 250 | 0.0 | 0.0 | 0.00 | 0.66 | 0.66 | 97 | 1013.2 |
| 20260503210047 | 12 | 250 | 0.0 | 1.6 | 0.03 | 0.66 | 0.66 | 97 | 1013.2 |
| 20260503204602 | 12 | 264 | 1.6 | 4.8 | 0.05 | 0.66 | 0.66 | 97 | 1013.0 |
| 20260503203105 | 13 | 30 | 0.0 | 0.0 | 0.05 | 0.66 | 0.66 | 97 | 1012.6 |